Temp
81 85 84 83 81 83 82 83 80 80 80 80 80 80 79 80 81 79 77 76 74 73
81 80 81 80 80 84 80 83 82 80 79 79 80 79 77 80 79 78 77 76 76 74
82 81 81 80 79 79 80 80 79 80 80 80 80 79 78 78 77 75 76 77 76 76
82 82 81 80 81 80 80 79 79 79 79 79 79 79 77 77 78 76 75 76 74 74
81 81 80 80 81 81 79 80 79 79 79 79 79 79 77 76 76 74 73 73 73 72
80 80 79 79 80 81 80 79 80 79 78 78 79 78 77 76 75 75 74 73 69 68
80 80 80 80 80 80 80 79 79 79 78 79 78 78 77 76 75 74 73 71 65 63
81 81 80 79 79 80 80 80 79 79 79 80 80 82 76 75 75 72 71 69 63 62
81 80 80 80 79 79 79 79 79 79 79 78 81 63 65 68 75 72 69 65 61 61
81 80 80 80 79 78 78 79 78 78 78 77 78 65 64 65 75 72 69 68 63 60
81 80 80 79 78 78 79 77 77 77 78 78 79 63 63 64 74 70 70 68 67 62
82 80 79 78 78 78 77 77 77 78 77 77 77 61 61 63 75 70 70 71 67 66
83 81 79 79 78 78 78 78 81 79 79 74 77 65 59 64 70 68 69 71 69 61
82 80 79 79 78 77 76 77 77 77 78 78 76 75 58 56 72 68 68 66 71 66
MSLP
1016.45 1016.12 1016.23 1016.13 1016.36 1016.00 1015.96 1015.83 1016.16 1016.05 1015.81 1015.58 1015.37 1015.15 1014.98 1014.76 1014.24 1014.06 1014.05 1013.71 1013.56 1013.33
1016.17 1016.27 1016.24 1016.38 1016.35 1015.80 1016.13 1015.72 1015.57 1015.64 1015.48 1015.37 1015.18 1014.99 1014.78 1014.22 1014.06 1013.89 1013.67 1013.36 1012.92 1012.56
1015.73 1015.90 1016.09 1016.13 1016.08 1015.96 1015.87 1015.80 1015.64 1015.38 1015.14 1014.99 1014.83 1014.69 1014.52 1014.08 1013.85 1013.82 1013.48 1013.03 1012.46 1012.01
1015.48 1015.58 1015.77 1015.74 1015.66 1015.58 1015.56 1015.54 1015.38 1015.12 1014.89 1014.67 1014.50 1014.27 1014.32 1014.16 1013.68 1013.51 1013.10 1012.63 1012.24 1011.66
1015.30 1015.41 1015.42 1015.41 1015.32 1015.21 1015.15 1015.15 1015.03 1014.86 1014.68 1014.40 1014.08 1013.94 1013.97 1013.81 1013.67 1013.41 1013.02 1012.52 1011.90 1011.30
1014.96 1015.01 1015.06 1015.06 1015.01 1014.93 1014.82 1014.75 1014.63 1014.49 1014.31 1014.10 1013.69 1013.53 1013.52 1013.46 1013.40 1012.96 1012.67 1012.17 1011.61 1010.91
1014.48 1014.58 1014.59 1014.61 1014.60 1014.52 1014.43 1014.32 1014.19 1014.01 1013.86 1013.56 1013.36 1013.15 1013.03 1013.02 1013.00 1012.76 1012.55 1012.27 1011.84 1010.98
1013.96 1014.09 1014.18 1014.17 1014.19 1014.17 1014.01 1013.78 1013.64 1013.51 1013.28 1013.01 1012.67 1012.23 1012.75 1012.83 1012.56 1012.54 1012.23 1011.89 1011.69 1010.74
1013.43 1013.58 1013.58 1013.60 1013.65 1013.63 1013.47 1013.27 1013.05 1012.91 1012.74 1012.56 1012.26 1012.70 1012.98 1012.88 1012.15 1011.99 1011.83 1011.69 1011.38 1010.60
1012.85 1012.94 1013.00 1013.14 1013.16 1013.11 1012.98 1012.86 1012.70 1012.52 1012.31 1012.10 1011.87 1012.35 1012.62 1012.51 1011.72 1011.50 1011.33 1011.07 1010.90 1010.01
1012.23 1012.31 1012.52 1012.70 1012.64 1012.65 1012.41 1012.34 1012.25 1012.05 1011.85 1011.66 1011.29 1011.64 1011.98 1012.01 1011.40 1011.07 1010.72 1010.55 1010.35 1009.98
1011.46 1011.66 1011.91 1012.16 1012.14 1012.11 1012.05 1011.91 1011.65 1011.44 1011.48 1011.26 1011.03 1011.34 1011.40 1011.54 1010.61 1010.43 1010.09 1009.73 1009.65 1009.47
1010.80 1011.09 1011.41 1011.52 1011.61 1011.70 1011.75 1011.35 1010.97 1010.87 1010.78 1010.60 1010.55 1010.55 1010.88 1010.92 1010.51 1010.22 1009.72 1009.21 1008.74 1008.72
1010.39 1010.64 1010.75 1010.95 1011.33 1011.37 1011.39 1011.19 1011.02 1010.79 1010.52 1010.14 1009.91 1010.25 1010.53 1010.48 1010.25 1009.90 1009.46 1008.93 1008.20 1007.99
Wind_Speed
4 5 5 3 5 5 5 4 4 5 6 7 8 8 8 9 10 11 10 15 12 10
4 5 5 5 5 4 4 4 4 6 6 6 7 8 8 9 9 10 11 13 14 12
4 4 4 5 6 6 6 6 8 8 8 7 7 6 7 8 9 10 11 12 15 14
5 4 4 5 6 6 7 7 8 9 9 9 10 8 8 9 10 12 13 15 15 17
5 5 5 6 8 7 8 8 9 10 10 11 11 9 9 9 11 13 15 17 17 18
6 6 6 7 7 8 9 10 11 11 11 11 10 10 9 10 11 12 13 15 15 16
6 6 6 6 7 8 9 10 11 10 11 10 9 9 9 7 9 9 11 14 13 12
7 6 7 7 8 9 10 9 10 9 10 10 9 6 4 6 6 8 10 12 11 12
7 8 9 9 9 9 10 9 9 9 9 9 8 8 5 6 6 7 8 11 10 12
8 8 8 8 9 9 9 9 10 9 9 9 9 11 8 7 6 6 6 8 8 9
9 9 8 8 9 9 9 8 8 9 8 9 8 13 11 10 10 7 7 7 9 8
9 8 9 9 9 8 8 8 9 8 8 9 10 11 11 10 12 8 10 9 7 9
8 8 9 9 8 7 7 8 6 7 8 9 10 4 12 12 8 12 8 12 10 8
7 9 9 9 8 8 8 8 8 9 8 10 5 6 5 8 11 8 10 8 11 8
Wind_Direction
240 275 282 286 319 305 319 316 328 302 307 312 311 305 298 285 293 292 278 276 269 267
251 258 316 291 282 284 283 302 286 305 303 303 315 311 309 285 298 295 282 280 274 270
266 244 275 282 283 285 286 281 293 296 290 293 299 316 319 318 313 308 302 299 298 283
253 259 268 281 279 275 275 277 286 296 299 293 292 296 313 314 314 324 315 306 295 286
245 252 267 276 282 283 275 278 290 298 293 288 285 284 291 300 315 316 316 313 308 296
243 246 264 275 281 288 289 287 289 289 285 289 289 294 287 303 320 326 328 321 314 305
240 253 269 281 285 290 294 294 291 292 282 284 289 292 283 303 318 335 329 341 311 309
245 260 265 276 286 292 290 294 295 296 290 285 285 285 279 298 311 322 322 343 328 338
257 263 265 273 281 289 290 294 295 300 298 299 290 131 208 275 312 317 317 323 327 333
250 256 264 281 284 286 298 299 297 302 303 292 297 184 216 237 279 315 326 319 319 338
250 256 259 266 271 280 297 299 290 288 294 294 295 182 211 232 262 289 299 307 322 326
248 256 260 263 269 291 292 288 284 276 280 287 301 198 217 237 270 278 299 295 293 303
257 258 271 270 277 289 271 265 289 292 289 291 291 236 220 227 259 278 291 299 302 258
254 253 248 268 271 265 258 292 289 300 297 286 325 320 328 243 253 268 294 297 305 316